Back to catalog

ONEWEB-0332

AliveCommunicationsPO
NORAD 49279·PAYLOAD·🇬🇧 United Kingdom

Launched Oct 14, 2021 from Vostochny Cosmodrome

Loading…

Next Passes (next 24 hours)

TLE

FreshSource: CelesTrak SupGP

Epoch: Sep 14, 2026, 07:08 UTC

1 49279C 21090A   26257.29741155 -.00000055  00000+0 -14902-3 0  2576
2 49279  87.8891 271.9381 0002029  88.2248   7.7738 13.14499798    18

Track ONEWEB-0332 in real time with AllMySat

Download on the App Store